sat.trackr.live / text

‹ back to catalog

STARLINK-3860

NORAD 52477 · 2022-049AC

PAYLOAD ACTIVE UNKNOWN

§ Identity

Operator
Country
US
Launch date
2022-05-06
Launch site
AFETR
Launch vehicle
Mass (kg)
RCS (m²)

Purposes: comms

External: N2YO · Heavens-Above · Gunter

§ Orbital elements

Epoch: 2026-09-19T16:33:37.160352Z

Period
93.85 min
Inclination
53.1603°
Eccentricity
0.0001249
Mean motion
15.34387269 rev/d
Perigee alt
461.9 km
Apogee alt
463.6 km
Semi-major
6,840.9 km
B*
2.5856e-5
RAAN
247.1543°
Arg perigee
95.0476°
Mean anomaly
265.0669°
Rev number
24,306

§ Raw data

STARLINK-38601 52477U 22049AC  26262.69001343  .00000497  00000+0  25856-4 0  99952 52477  53.1603 247.1543 0001249  95.0476 265.0669 15.34387269243065

JSON: /api/v1/satellites/52477 · /tle

For live sub-satellite position, see the globe view (requires WebGL).

§ Visibility from observer

Set your observer location to see the next 7 days of passes ≥ 10°. The values pass through the URL so the page stays shareable.

No JS? Fill the form by hand. The geolocation button needs JavaScript.